Location: Unspecified
(0.0000°N, 0.0000°E)
Time: 03:28:21
(UTC+00:00)

Vanguard 1 - Pass Details

Date: 17 December 2023
Orbit: 653 x 3826 km, 34.3° (Epoch: 22 February)

Event Time Altitude Azimuth Distance (km) Brightness Sun altitude
Rises 23:25:26 0° 300° (WNW) 7,586 14.5 -65.5°
Reaches altitude 10° 23:30:22 10° 297° (WNW) 6,756 14.2 -65.8°
Enters shadow 23:32:31 15° 296° (WNW) 6,400 14.0 -65.9°
Maximum altitude 23:53:44 66° 219° (SW) 3,824 - -66.6°
Exits shadow 00:03:00 41° 154° (SSE) 4,125 13.1 -66.6°
Drops below altitude 10° 00:11:50 10° 139° (SE) 5,400 14.0 -66.3°
Sets 00:15:17 0° 135° (SE) 6,065 14.4 -66.2°
